{"data":{"norad_id":53161,"epoch":"2026-05-24T19:22:48.836352Z","epoch_age_seconds":91388,"freshness":"FRESH","line1":"1 53161U 22083AF  26144.80750968 -.00000195  00000+0  58576-5 0  9992","line2":"2 53161  53.2136 182.4163 0001005  76.1816 283.9288 15.08834626212859","mean_motion":15.08834626,"eccentricity":0.0001005,"inclination_deg":53.2136,"raan_deg":182.4163,"arg_perigee_deg":76.1816,"mean_anomaly_deg":283.9288,"bstar":5.8576e-6,"rev_number":21285,"period_min":95.437894596674,"perigee_km":539.06456655103,"apogee_km":540.45506381088,"semimajor_km":6917.896815181,"source":"CELESTRAK","updated_at":"2026-05-25T13:38:17.321528Z"}}